FW1564 Weather Reports


time (UTC)temp
C
wind
direction
speed
KPH
gust
KPH
rain 1hr
cm
rain 24hr
cm
rain mn
cm
humidity
%
barometer
mb
20260901022249 19 332 3.2 4.8 0.00 0.00 0.00 69 1021.8
20260901021250 18 338 1.6 4.8 0.00 0.00 0.00 69 1021.9
20260901020249 18 7 4.8 6.4 0.00 0.00 0.00 67 1021.9
20260901015244 18 345 6.4 6.4 0.00 0.00 0.00 67 1022.0
20260901014746 19 343 3.2 4.8 0.00 0.00 0.00 67 1022.0
20260901013245 18 340 1.6 3.2 0.00 0.00 0.00 69 1021.9
20260901012257 19 332 3.2 6.4 0.00 0.00 0.00 66 1022.0
20260901011246 19 345 4.8 6.4 0.00 0.00 0.00 65 1022.2
20260901010245 19 338 3.2 4.8 0.00 0.00 0.00 69 1022.1
20260901005723 19 334 3.2 4.8 0.00 0.00 0.00 63 1022.3
20260901004242 19 359 4.8 6.4 0.00 0.00 0.00 63 1022.5
20260901003717 19 339 3.2 4.8 0.00 0.00 0.00 64 1022.7
20260901002243 19 342 1.6 4.8 0.00 0.00 0.00 64 1022.5
20260901001242 18 349 3.2 9.7 0.00 0.00 0.00 69 1022.5
20260901000242 19 350 3.2 6.4 0.00 0.00 0.00 70 1022.5
20260831235241 19 354 1.6 6.4 0.00 0.00 0.00 72 1022.6
20260831234242 19 332 4.8 6.4 0.00 0.00 0.00 70 1022.6
20260831233239 19 334 1.6 6.4 0.00 0.00 0.00 67 1022.5
20260831232239 19 333 3.2 6.4 0.00 0.00 0.00 69 1022.6
20260831231231 19 347 1.6 6.4 0.00 0.00 0.00 70 1022.7
20260831230239 19 337 1.6 11.3 0.00 0.00 0.00 69 1022.4
20260831225232 19 340 4.8 6.4 0.00 0.00 0.00 71 1022.4
20260831224233 19 341 3.2 6.4 0.00 0.00 0.00 75 1022.6
20260831223232 18 342 3.2 4.8 0.00 0.00 0.00 76 1022.5
20260831222232 19 339 4.8 9.7 0.00 0.00 0.00 77 1022.9
20260831221233 19 8 6.4 9.7 0.00 0.00 0.00 76 1022.8
20260831220232 19 336 3.2 4.8 0.00 0.00 0.00 79 1022.5
20260831215712 19 340 3.2 6.4 0.00 0.00 0.00 79 1022.6
20260831214705 19 345 3.2 6.4 0.00 0.00 0.00 79 1022.9
20260831213233 19 339 3.2 4.8 0.00 0.00 0.00 77 1022.7
20260831212232 19 353 3.2 4.8 0.00 0.00 0.00 78 1022.4
20260831211231 19 345 3.2 4.8 0.00 0.00 0.00 79 1022.2
20260831210709 19 340 3.2 4.8 0.00 0.00 0.00 81 1022.2
20260831205232 20 339 3.2 6.4 0.00 0.00 0.00 82 1022.0
20260831204233 20 333 6.4 6.4 0.00 0.00 0.00 82 1022.0
20260831204207 19 345 3.2 4.8 0.00 0.00 0.00 84 1021.9
20260831202225 19 336 3.2 4.8 0.00 0.00 0.00 84 1021.6
20260831201225 20 346 1.6 4.8 0.00 0.00 0.00 85 1021.8
20260831200225 20 341 3.2 4.8 0.00 0.00 0.00 86 1021.7
20260831195707 20 327 0.0 1.6 0.00 0.00 0.00 87 1021.6
20260831194225 20 327 0.0 1.6 0.00 0.00 0.00 87 1021.3
20260831193226 21 203 0.0 0.0 0.00 0.00 0.00 86 1021.1
20260831192226 21 240 0.0 3.2 0.00 0.00 0.00 86 1021.1
20260831191225 21 120 3.2 3.2 0.00 0.00 0.00 85 1020.9
20260831190225 21 200 1.6 4.8 0.00 0.00 0.00 85 1021.2
20260831185225 21 111 0.0 4.8 0.00 0.00 0.00 84 1021.2
20260831184226 21 94 3.2 9.7 0.00 0.00 0.00 84 1021.0
20260831183700 21 112 3.2 4.8 0.00 0.00 0.00 84 1021.0
20260831182222 21 134 4.8 9.7 0.00 0.00 0.00 83 1021.1
20260831181221 22 133 3.2 6.4 0.00 0.00 0.00 83 1021.1
20260831180220 22 146 3.2 6.4 0.00 0.00 0.00 82 1020.7
20260831175657 22 210 3.2 6.4 0.00 0.00 0.00 82 1020.8
20260831174220 22 160 1.6 4.8 0.00 0.00 0.00 81 1020.7
20260831173220 22 95 4.8 9.7 0.00 0.00 0.00 80 1020.7
20260831172219 22 135 4.8 9.7 0.00 0.00 0.00 79 1020.9
20260831171221 22 131 6.4 9.7 0.00 0.00 0.00 79 1020.8
20260831170221 23 136 6.4 9.7 0.00 0.00 0.00 78 1021.0
20260831165655 24 118 4.8 11.3 0.00 0.00 0.00 74 1020.9
20260831164221 23 209 0.0 11.3 0.00 0.00 0.00 74 1020.7
20260831163657 24 113 8.0 11.3 0.00 0.00 0.00 72 1020.8
20260831162222 24 131 6.4 14.5 0.00 0.00 0.00 73 1020.7
20260831161220 24 105 3.2 12.9 0.00 0.00 0.00 71 1020.9
20260831160221 24 145 9.7 16.1 0.00 0.00 0.00 73 1021.0
20260831155211 24 190 8.0 16.1 0.00 0.00 0.00 72 1020.8
20260831154211 24 146 4.8 14.5 0.00 0.00 0.00 72 1020.9
20260831153659 25 148 6.4 14.5 0.00 0.00 0.00 70 1021.0
20260831152211 25 131 6.4 16.1 0.00 0.00 0.00 69 1020.9
20260831151211 25 162 4.8 16.1 0.00 0.00 0.00 68 1021.2
20260831150211 25 81 6.4 14.5 0.00 0.00 0.00 68 1021.3
20260831145211 24 170 8.0 16.1 0.00 0.00 0.00 69 1021.2
20260831144645 25 160 4.8 14.5 0.00 0.00 0.00 70 1021.2
20260831143152 24 144 8.0 14.5 0.00 0.00 0.00 71 1021.5
20260831142157 25 71 4.8 12.9 0.00 0.00 0.00 70 1021.2
20260831141152 24 164 4.8 17.7 0.00 0.00 0.00 72 1021.5
20260831140152 24 129 6.4 16.1 0.00 0.00 0.00 73 1021.5
20260831135152 24 128 9.7 16.1 0.00 0.00 0.00 71 1021.7
20260831134152 24 136 4.8 11.3 0.00 0.00 0.00 71 1021.6
20260831134117 24 196 11.3 17.7 0.00 0.00 0.00 70 1021.7
20260831132152 25 139 9.7 12.9 0.00 0.00 0.00 70 1021.6
20260831131152 23 185 3.2 14.5 0.00 0.00 0.00 72 1021.6
20260831130153 24 150 3.2 16.1 0.00 0.00 0.00 70 1021.8
20260831125628 25 139 12.9 14.5 0.00 0.00 0.00 68 1022.0
20260831124153 24 108 8.0 14.5 0.00 0.00 0.00 70 1022.0
20260831123152 24 201 8.0 12.9 0.00 0.00 0.00 70 1022.1
20260831123114 24 112 6.4 14.5 0.00 0.00 0.00 70 1022.1
20260831121152 23 124 4.8 12.9 0.00 0.00 0.00 71 1022.0
20260831120153 23 119 4.8 14.5 0.00 0.00 0.00 71 1022.1
20260831115632 23 139 3.2 14.5 0.00 0.00 0.00 71 1022.2
20260831114151 23 68 4.8 12.9 0.00 0.00 0.00 73 1022.4
20260831113151 23 112 6.4 11.3 0.00 0.00 0.00 73 1022.5
20260831112151 22 164 8.0 12.9 0.00 0.00 0.00 76 1022.4
20260831111151 23 168 3.2 11.3 0.00 0.00 0.00 77 1022.3
20260831110151 22 143 6.4 11.3 0.00 0.00 0.00 81 1022.4
20260831105624 21 154 4.8 11.3 0.00 0.00 0.00 81 1022.4
20260831104151 22 90 4.8 11.3 0.00 0.00 0.00 81 1022.2
20260831103152 22 143 6.4 11.3 0.00 0.00 0.00 80 1022.1
20260831102154 21 146 3.2 6.4 0.00 0.00 0.00 82 1022.1
20260831101151 21 155 3.2 9.7 0.00 0.00 0.00 81 1022.3
20260831100151 21 164 3.2 9.7 0.00 0.00 0.00 81 1022.4
20260831095151 21 143 6.4 12.9 0.00 0.00 0.00 81 1022.3
20260831094152 21 132 9.7 12.9 0.00 0.00 0.00 80 1022.3
20260831093152 21 83 6.4 6.4 0.00 0.00 0.00 79 1022.2
20260831092152 22 150 6.4 6.4 0.00 0.00 0.00 76 1022.1
20260831091151 22 128 0.0 4.8 0.00 0.00 0.00 77 1022.2
20260831090152 21 134 1.6 3.2 0.00 0.00 0.00 77 1022.1
20260831085151 22 14 1.6 3.2 0.00 0.00 0.00 76 1022.0
20260831084151 22 32 0.0 3.2 0.00 0.00 0.00 76 1021.8
20260831083625 21 335 0.0 3.2 0.00 0.00 0.00 79 1021.9
20260831082627 20 28 1.6 3.2 0.00 0.00 0.00 80 1021.9
20260831081150 20 134 3.2 6.4 0.00 0.00 0.00 83 1021.8
20260831080150 18 4 3.2 6.4 0.00 0.00 0.00 84 1021.6
20260831075137 19 347 6.4 11.3 0.00 0.00 0.00 83 1021.3
20260831074138 18 345 6.4 12.9 0.00 0.00 0.00 85 1021.1
20260831073138 18 14 3.2 12.9 0.00 0.00 0.00 85 1020.9
20260831072138 18 332 8.0 12.9 0.00 0.00 0.00 86 1021.1
20260831071137 18 349 6.4 11.3 0.00 0.00 0.00 85 1021.0
20260831070138 18 348 4.8 9.7 0.00 0.00 0.00 86 1021.0
20260831065138 18 326 4.8 6.4 0.00 0.00 0.00 86 1021.0
20260831064138 18 342 4.8 6.4 0.00 0.00 0.00 86 1020.6
20260831063138 17 330 4.8 6.4 0.00 0.00 0.00 87 1020.5
20260831062138 18 339 3.2 4.8 0.00 0.00 0.00 86 1020.5
20260831061139 18 346 1.6 6.4 0.00 0.00 0.00 86 1020.1
20260831060138 18 330 4.8 9.7 0.00 0.00 0.00 86 1020.4
20260831055615 17 347 4.8 9.7 0.00 0.00 0.00 87 1020.2
20260831054137 17 341 3.2 9.7 0.00 0.00 0.00 87 1020.2
20260831053138 17 344 6.4 9.7 0.00 0.00 0.00 88 1020.5
20260831052137 17 359 3.2 6.4 0.00 0.00 0.00 89 1020.4
20260831051137 17 352 4.8 6.4 0.00 0.00 0.00 88 1020.5
20260831050139 17 341 4.8 6.4 0.00 0.00 0.00 88 1020.4
20260831045137 17 343 1.6 6.4 0.00 0.00 0.00 87 1020.4
20260831044137 17 340 4.8 6.4 0.00 0.00 0.00 87 1020.4
20260831043137 17 339 3.2 6.4 0.00 0.00 0.00 87 1020.4
20260831042138 17 346 3.2 6.4 0.00 0.00 0.00 86 1020.5
20260831040136 18 311 4.8 11.3 0.00 0.00 0.00 86 1020.5
20260831035130 18 344 4.8 9.7 0.00 0.00 0.00 86 1020.5
20260831034130 17 335 4.8 6.4 0.00 0.00 0.00 86 1020.6
20260831033606 18 340 3.2 6.4 0.00 0.00 0.00 86 1020.6
20260831032131 18 352 4.8 9.7 0.00 0.00 0.00 86 1020.6
20260831031130 18 354 3.2 9.7 0.00 0.00 0.00 86 1020.5
20260831030615 18 341 4.8 6.4 0.00 0.00 0.00 85 1020.9
20260831025129 18 342 3.2 6.4 0.00 0.00 0.00 85 1020.8
20260831024129 17 2 3.2 4.8 0.00 0.00 0.00 86 1020.7